Startpagina
METAR-TAF:

METAR-TAF

Vliegvelden :

Aeropuerto Capitán Av. Selin Zeitun Lopez

Riberalta, Bolivia

breedte: 11-00S, lengte: 066-07W, hoogte: 141 m

Actueel weer

Dit bericht is 48 minuten geleden gemaakt, om 21:00 UTC
Weinig wind
Temperatuur 28°C
Vochtigheid 79%
Druk 1007 hPa
Zicht: 8000 m
Verspreide wolken op 1700 ft
Weinig wolken op 2000 ft, Cumulonimbus.
Gebroken wolken op 20000 ft
buien in de omgeving

METAR: SLRI 112100Z 00000KT 8000 VCSH SCT017 FEW020CB BKN200 28/24 Q1007

Tijdstip: 17:48 (21:48 UTC)


TAF: ontbreekt

Waarnemingen en weersverwachtingen van meer dan 4000 vliegvelden (METAR en TAF).

De beschikbare stations zijn de gele en rode punten op de kaart.

Ga met uw muis naar het station om de naam te zien.

Klik dan om waarnemingen en weersverwachtingen te zien.

kaart wijzigen: klik op de groene knoppen met een zwart kruis om in te zoomen, op de groene knop met een streepje om uit te zoomen of op de groene pijlen voor aangrenzende kaarten.


METAR-TAF: